^^

..:: Storico WU ::..




Lo storico viene creato da WUnderground con i dati che la stazione Meteomincio invia al loro server. L' aggiornamento viene fatto ogni 5 minuti circa, tuttavia possono esserci intervalli pił ampi a causa di errori, interruzioni di servizio o problemi nell' invio tramite FTP.


Storico stazione MeteoMincio
Giorno Sommario per Giugno 03, 2022 Unità:  Inglese    Metrico   Entrambi
Giorno Settimana Mese Anno
  Max: Min: Media:
Temperatura: 80.6 °F 69.8 °F 74.3 °F
Dew Point: 71.6 °F 64.4 °F 68.2 °F
Umidità: 94% 65% 82%
Velocità vento: 9.3mph 0mph 3.8mph
Raffica: 13mph - -
Direzione- - ESE
Pressione: 30.1 in 30 in -
Precipitazioni: 0.03 in    
 
 
Tabulato Dati per Giugno 03, 2022
Ora Temperatura Dew Point Pressione Direzione Velocità vento Raffica Umidità Intensità pioggia (oraria) Info solare Situazione
00:04 73.4 °F 68 °F 30 in SE 1.9 mph 5 mph 81% 0 in 0.00 W/m2 unknown
00:09 73.4 °F 68 °F 30 in ESE 1.9 mph 3.7 mph 81% 0 in 0.00 W/m2 unknown
00:14 73.4 °F 68 °F 30 in ESE 2.5 mph 3.7 mph 81% 0 in 0.00 W/m2 unknown
00:19 73.4 °F 68 °F 30 in ESE 1.2 mph 3.1 mph 81% 0 in 0.00 W/m2 unknown
00:24 73.4 °F 68 °F 30 in East 1.9 mph 3.7 mph 81% 0 in 0.00 W/m2 unknown
00:29 73.4 °F 68 °F 30 in ENE 2.5 mph 3.7 mph 81% 0 in 0.00 W/m2 unknown
00:34 73.4 °F 68 °F 30 in ENE 2.5 mph 3.7 mph 82% 0 in 0.00 W/m2 unknown
00:39 73.4 °F 68 °F 30 in NE 3.7 mph 6.2 mph 82% 0 in 0.00 W/m2 unknown
00:44 73.4 °F 68 °F 30 in NE 4.3 mph 6.2 mph 82% 0 in 0.00 W/m2 unknown
00:49 73.4 °F 68 °F 30 in NE 3.7 mph 6.2 mph 83% 0 in 0.00 W/m2 unknown
00:54 73.4 °F 68 °F 30 in ENE 3.1 mph 6.2 mph 83% 0 in 0.00 W/m2 unknown
00:59 73.4 °F 68 °F 30 in NE 3.1 mph 5 mph 82% 0 in 0.00 W/m2 unknown
01:04 73.4 °F 68 °F 30 in NE 3.7 mph 4.3 mph 83% 0 in 0.00 W/m2 unknown
01:09 73.4 °F 68 °F 30 in NE 3.7 mph 5 mph 83% 0 in 0.00 W/m2 unknown
01:14 73.4 °F 66.2 °F 30 in NE 4.3 mph 6.2 mph 83% 0 in 0.00 W/m2 unknown
01:19 71.6 °F 66.2 °F 30 in NE 4.3 mph 6.2 mph 83% 0 in 0.00 W/m2 unknown
01:24 71.6 °F 68 °F 30 in NE 5 mph 6.2 mph 84% 0 in 0.00 W/m2 unknown
01:29 71.6 °F 66.2 °F 30 in ENE 4.3 mph 6.2 mph 84% 0 in 0.00 W/m2 unknown
01:34 71.6 °F 66.2 °F 30 in NE 3.7 mph 6.2 mph 84% 0 in 0.00 W/m2 unknown
01:39 71.6 °F 66.2 °F 30 in ENE 4.3 mph 6.2 mph 84% 0 in 0.00 W/m2 unknown
01:44 71.6 °F 66.2 °F 30 in ENE 4.3 mph 6.8 mph 84% 0 in 0.00 W/m2 unknown
01:49 71.6 °F 66.2 °F 30 in ENE 5 mph 8.1 mph 84% 0 in 0.00 W/m2 unknown
01:54 71.6 °F 66.2 °F 30 in ENE 5.6 mph 8.1 mph 84% 0 in 0.00 W/m2 unknown
01:59 71.6 °F 66.2 °F 30 in ENE 5 mph 8.1 mph 84% 0 in 0.00 W/m2 unknown
02:04 71.6 °F 66.2 °F 30 in ENE 5 mph 6.8 mph 84% 0 in 0.00 W/m2 unknown
02:09 71.6 °F 66.2 °F 30 in ENE 5.6 mph 8.1 mph 84% 0 in 0.00 W/m2 unknown
02:14 71.6 °F 66.2 °F 30 in ENE 5.6 mph 8.1 mph 84% 0 in 0.00 W/m2 unknown
02:19 71.6 °F 66.2 °F 30 in ENE 6.2 mph 8.1 mph 84% 0 in 0.00 W/m2 unknown
02:24 71.6 °F 66.2 °F 30 in ENE 6.2 mph 8.1 mph 85% 0 in 0.00 W/m2 unknown
02:29 71.6 °F 66.2 °F 30 in ENE 5 mph 8.1 mph 85% 0 in 0.00 W/m2 unknown
02:34 71.6 °F 66.2 °F 30 in ENE 5 mph 8.1 mph 85% 0 in 0.00 W/m2 unknown
02:39 71.6 °F 66.2 °F 30 in ENE 5 mph 6.8 mph 85% 0 in 0.00 W/m2 unknown
02:44 69.8 °F 66.2 °F 30 in ENE 5 mph 6.8 mph 85% 0 in 0.00 W/m2 unknown
02:49 69.8 °F 66.2 °F 30 in ENE 5 mph 6.8 mph 85% 0 in 0.00 W/m2 unknown
02:54 69.8 °F 66.2 °F 30 in ENE 5 mph 6.8 mph 85% 0 in 0.00 W/m2 unknown
02:59 69.8 °F 66.2 °F 30 in ENE 5 mph 6.8 mph 85% 0 in 0.00 W/m2 unknown
03:04 69.8 °F 66.2 °F 30 in ENE 5 mph 5 mph 85% 0 in 0.00 W/m2 unknown
03:09 69.8 °F 66.2 °F 30 in ENE 3.7 mph 5 mph 85% 0 in 0.00 W/m2 unknown
03:14 69.8 °F 66.2 °F 30 in ENE 3.7 mph 5 mph 85% 0 in 0.00 W/m2 unknown
03:19 69.8 °F 66.2 °F 30 in ENE 3.7 mph 5 mph 85% 0 in 0.00 W/m2 unknown
03:24 69.8 °F 66.2 °F 30 in ENE 3.1 mph 5 mph 85% 0 in 0.00 W/m2 unknown
03:29 69.8 °F 66.2 °F 30 in ENE 3.1 mph 4.3 mph 85% 0 in 0.00 W/m2 unknown
03:34 69.8 °F 66.2 °F 30 in NE 3.1 mph 5 mph 85% 0 in 0.00 W/m2 unknown
03:39 69.8 °F 66.2 °F 30 in NE 3.1 mph 3.7 mph 85% 0 in 0.00 W/m2 unknown
03:44 69.8 °F 66.2 °F 30 in ENE 3.7 mph 5 mph 85% 0 in 0.00 W/m2 unknown
03:49 69.8 °F 66.2 °F 30 in ENE 3.1 mph 5 mph 85% 0 in 0.00 W/m2 unknown
03:54 69.8 °F 66.2 °F 30 in ENE 3.1 mph 5 mph 85% 0 in 0.00 W/m2 unknown
03:58 69.8 °F 64.4 °F 30 in ENE 3.1 mph 5 mph 85% 0 in 0.00 W/m2 unknown
04:03 69.8 °F 64.4 °F 30 in ENE 2.5 mph 3.7 mph 85% 0 in 0.00 W/m2 unknown
04:08 69.8 °F 64.4 °F 30 in ENE 2.5 mph 3.7 mph 86% 0 in 0.00 W/m2 unknown
04:12 69.8 °F 64.4 °F 30 in ENE 2.5 mph 3.7 mph 86% 0 in 0.00 W/m2 unknown
04:19 69.8 °F 64.4 °F 30 in East 3.1 mph 5 mph 86% 0 in 0.00 W/m2 unknown
04:23 69.8 °F 64.4 °F 30 in East 3.1 mph 5 mph 86% 0 in 0.00 W/m2 unknown
04:28 69.8 °F 64.4 °F 30 in ENE 3.1 mph 5 mph 86% 0 in 0.00 W/m2 unknown
04:33 69.8 °F 64.4 °F 30 in East 5 mph 8.7 mph 85% 0 in 0.00 W/m2 unknown
04:38 69.8 °F 64.4 °F 30 in East 5 mph 9.3 mph 85% 0 in 0.00 W/m2 unknown
04:43 69.8 °F 64.4 °F 30 in ENE 4.3 mph 8.1 mph 84% 0 in 0.00 W/m2 unknown
04:48 69.8 °F 64.4 °F 30 in ENE 6.2 mph 8.1 mph 84% 0 in 0.00 W/m2 unknown
04:54 69.8 °F 64.4 °F 30 in ENE 5 mph 8.1 mph 84% 0 in 0.00 W/m2 unknown
04:58 69.8 °F 64.4 °F 30 in NE 5 mph 8.1 mph 84% 0 in 0.00 W/m2 unknown
05:03 69.8 °F 64.4 °F 30 in NE 3.7 mph 6.8 mph 84% 0 in 0.00 W/m2 unknown
05:08 69.8 °F 64.4 °F 30 in ENE 5 mph 8.1 mph 84% 0 in 0.00 W/m2 unknown
05:14 69.8 °F 64.4 °F 30 in ENE 5 mph 8.1 mph 84% 0 in 0.00 W/m2 unknown
05:19 69.8 °F 64.4 °F 30 in ENE 5 mph 8.1 mph 84% 0 in 0.00 W/m2 unknown
05:24 69.8 °F 64.4 °F 30 in ENE 5 mph 8.1 mph 84% 0 in 0.00 W/m2 unknown
05:28 69.8 °F 64.4 °F 30 in ENE 5 mph 6.8 mph 84% 0 in 0.00 W/m2 unknown
05:34 69.8 °F 64.4 °F 30 in East 4.3 mph 6.8 mph 84% 0 in 5.00 W/m2 unknown
05:39 69.8 °F 64.4 °F 30 in East 3.1 mph 6.2 mph 84% 0 in 9.00 W/m2 unknown
05:44 69.8 °F 64.4 °F 30 in ENE 3.1 mph 5 mph 84% 0 in 14.00 W/m2 unknown
05:49 69.8 °F 64.4 °F 30 in ENE 3.1 mph 5 mph 84% 0 in 18.00 W/m2 unknown
05:54 69.8 °F 64.4 °F 30 in ENE 3.7 mph 6.8 mph 84% 0 in 26.00 W/m2 unknown
05:59 69.8 °F 64.4 °F 30 in East 4.3 mph 6.8 mph 84% 0 in 35.00 W/m2 unknown
06:03 69.8 °F 64.4 °F 30 in ENE 3.1 mph 6.8 mph 84% 0 in 35.00 W/m2 unknown
06:09 69.8 °F 64.4 °F 30 in East 3.1 mph 6.2 mph 84% 0 in 49.00 W/m2 unknown
06:14 69.8 °F 64.4 °F 30 in East 3.1 mph 5 mph 84% 0 in 56.00 W/m2 unknown
06:19 69.8 °F 64.4 °F 30 in East 3.1 mph 5 mph 84% 0 in 58.00 W/m2 unknown
06:24 69.8 °F 66.2 °F 30 in East 3.1 mph 6.2 mph 84% 0 in 56.00 W/m2 unknown
06:29 69.8 °F 64.4 °F 30 in East 4.3 mph 6.2 mph 84% 0 in 53.00 W/m2 unknown
06:34 69.8 °F 64.4 °F 30 in East 3.7 mph 6.2 mph 83% 0 in 49.00 W/m2 unknown
06:39 69.8 °F 64.4 °F 30 in ESE 3.7 mph 6.2 mph 83% 0 in 49.00 W/m2 unknown
06:44 69.8 °F 64.4 °F 30 in East 3.7 mph 6.2 mph 83% 0 in 56.00 W/m2 unknown
06:49 71.6 °F 66.2 °F 30.1 in East 3.1 mph 5 mph 83% 0 in 69.00 W/m2 unknown
06:54 71.6 °F 66.2 °F 30.1 in East 2.5 mph 5 mph 83% 0 in 83.00 W/m2 unknown
06:59 71.6 °F 66.2 °F 30.1 in East 3.1 mph 6.2 mph 83% 0 in 95.00 W/m2 unknown
07:04 71.6 °F 66.2 °F 30 in ESE 3.7 mph 6.2 mph 83% 0 in 100.00 W/m2 unknown
07:09 71.6 °F 66.2 °F 30 in East 3.7 mph 6.2 mph 82% 0 in 114.00 W/m2 unknown
07:14 71.6 °F 66.2 °F 30 in East 5 mph 8.1 mph 82% 0 in 132.00 W/m2 unknown
07:19 71.6 °F 66.2 °F 30 in ENE 5 mph 8.1 mph 82% 0 in 149.00 W/m2 unknown
07:24 71.6 °F 66.2 °F 30 in East 5 mph 6.8 mph 82% 0 in 153.00 W/m2 unknown
07:29 71.6 °F 66.2 °F 30.1 in East 5 mph 6.8 mph 81% 0 in 149.00 W/m2 unknown
07:34 73.4 °F 66.2 °F 30.1 in East 5 mph 6.8 mph 81% 0 in 142.00 W/m2 unknown
07:39 73.4 °F 66.2 °F 30.1 in East 3.7 mph 6.8 mph 80% 0 in 158.00 W/m2 unknown
07:44 73.4 °F 66.2 °F 30.1 in East 3.1 mph 5 mph 81% 0 in 163.00 W/m2 unknown
07:49 73.4 °F 66.2 °F 30.1 in East 3.1 mph 5 mph 81% 0 in 171.00 W/m2 unknown
07:53 73.4 °F 66.2 °F 30.1 in East 3.1 mph 8.1 mph 80% 0 in 169.00 W/m2 unknown
07:59 73.4 °F 66.2 °F 30.1 in East 5.6 mph 8.1 mph 80% 0 in 190.00 W/m2 unknown
08:04 73.4 °F 66.2 °F 30.1 in East 6.2 mph 9.3 mph 79% 0 in 213.00 W/m2 unknown
08:09 73.4 °F 66.2 °F 30.1 in East 6.2 mph 9.3 mph 79% 0 in 216.00 W/m2 unknown
08:14 73.4 °F 66.2 °F 30.1 in East 5 mph 9.3 mph 78% 0 in 229.00 W/m2 unknown
08:19 73.4 °F 66.2 °F 30.1 in ENE 6.8 mph 9.3 mph 78% 0 in 220.00 W/m2 unknown
08:24 75.2 °F 66.2 °F 30.1 in ENE 6.2 mph 9.3 mph 77% 0 in 176.00 W/m2 unknown
08:29 75.2 °F 66.2 °F 30.1 in East 6.2 mph 8.1 mph 77% 0 in 165.00 W/m2 unknown
08:34 73.4 °F 66.2 °F 30.1 in ENE 6.2 mph 8.1 mph 77% 0 in 153.00 W/m2 unknown
08:39 73.4 °F 66.2 °F 30.1 in East 6.2 mph 8.1 mph 77% 0 in 127.00 W/m2 unknown
08:44 73.4 °F 66.2 °F 30.1 in East 6.2 mph 9.3 mph 77% 0 in 163.00 W/m2 unknown
08:49 73.4 °F 66.2 °F 30.1 in East 6.2 mph 9.3 mph 77% 0 in 185.00 W/m2 unknown
08:54 75.2 °F 66.2 °F 30 in East 6.2 mph 8.1 mph 78% 0 in 200.00 W/m2 unknown
08:59 75.2 °F 68 °F 30 in East 6.2 mph 8.1 mph 78% 0 in 209.00 W/m2 unknown
09:04 75.2 °F 68 °F 30 in East 5 mph 9.3 mph 78% 0 in 229.00 W/m2 unknown
09:09 75.2 °F 68 °F 30 in East 6.8 mph 9.3 mph 77% 0 in 295.00 W/m2 unknown
09:14 75.2 °F 68 °F 30 in East 6.8 mph 11.8 mph 76% 0 in 380.00 W/m2 unknown
09:19 77 °F 68 °F 30 in East 7.5 mph 11.8 mph 75% 0 in 422.00 W/m2 unknown
09:24 77 °F 68 °F 30 in ENE 6.8 mph 11.8 mph 74% 0 in 429.00 W/m2 unknown
09:29 77 °F 68 °F 30 in ENE 8.7 mph 11.8 mph 73% 0 in 439.00 W/m2 unknown
09:34 77 °F 68 °F 30 in East 8.1 mph 13 mph 73% 0 in 492.00 W/m2 unknown
09:39 78.8 °F 68 °F 30 in ENE 7.5 mph 13 mph 72% 0 in 508.00 W/m2 unknown
09:44 78.8 °F 68 °F 30 in ENE 8.7 mph 13 mph 71% 0 in 464.00 W/m2 unknown
09:49 78.8 °F 68 °F 30 in ENE 8.7 mph 11.8 mph 70% 0 in 459.00 W/m2 unknown
09:54 78.8 °F 68 °F 30 in ENE 8.1 mph 11.8 mph 70% 0 in 427.00 W/m2 unknown
09:59 78.8 °F 68 °F 30.1 in ENE 8.7 mph 11.8 mph 70% 0 in 383.00 W/m2 unknown
10:04 78.8 °F 68 °F 30.1 in East 8.1 mph 11.8 mph 69% 0 in 339.00 W/m2 unknown
10:09 78.8 °F 68 °F 30.1 in East 6.8 mph 9.3 mph 71% 0 in 304.00 W/m2 unknown
10:14 78.8 °F 68 °F 30.1 in SE 6.2 mph 8.7 mph 71% 0 in 355.00 W/m2 unknown
10:19 78.8 °F 68 °F 30.1 in ESE 6.8 mph 10.6 mph 71% 0 in 362.00 W/m2 unknown
10:24 77 °F 68 °F 30.1 in ESE 6.2 mph 9.9 mph 71% 0 in 383.00 W/m2 unknown
10:29 78.8 °F 68 °F 30.1 in ENE 6.2 mph 11.8 mph 70% 0 in 390.00 W/m2 unknown
10:34 78.8 °F 68 °F 30.1 in East 6.2 mph 11.8 mph 69% 0 in 441.00 W/m2 unknown
10:38 78.8 °F 68 °F 30.1 in East 6.2 mph 11.8 mph 70% 0 in 441.00 W/m2 unknown
10:44 78.8 °F 68 °F 30.1 in East 7.5 mph 10.6 mph 70% 0 in 438.00 W/m2 unknown
10:49 78.8 °F 68 °F 30 in East 6.2 mph 10.6 mph 69% 0 in 480.00 W/m2 unknown
10:54 78.8 °F 68 °F 30.1 in ESE 8.7 mph 11.8 mph 68% 0 in 591.00 W/m2 unknown
10:59 78.8 °F 68 °F 30 in East 8.1 mph 11.8 mph 68% 0 in 591.00 W/m2 unknown
11:04 80.6 °F 68 °F 30 in East 7.5 mph 11.8 mph 68% 0 in 534.00 W/m2 unknown
11:09 80.6 °F 68 °F 30 in ESE 6.8 mph 13 mph 68% 0 in 515.00 W/m2 unknown
11:14 80.6 °F 68 °F 30 in East 7.5 mph 13 mph 68% 0 in 526.00 W/m2 unknown
11:19 80.6 °F 68 °F 30 in East 6.8 mph 13 mph 67% 0 in 628.00 W/m2 unknown
11:24 80.6 °F 68 °F 30 in ENE 8.7 mph 11.8 mph 66% 0 in 628.00 W/m2 unknown
11:29 80.6 °F 68 °F 30 in ESE 9.3 mph 13 mph 65% 0 in 524.00 W/m2 unknown
11:34 80.6 °F 68 °F 30 in East 8.1 mph 11.8 mph 67% 0 in 427.00 W/m2 unknown
11:39 80.6 °F 68 °F 30 in ENE 8.7 mph 11.8 mph 66% 0 in 394.00 W/m2 unknown
11:44 80.6 °F 68 °F 30 in East 8.7 mph 11.8 mph 67% 0 in 394.00 W/m2 unknown
11:49 80.6 °F 68 °F 30 in East 8.7 mph 11.8 mph 67% 0 in 373.00 W/m2 unknown
11:54 80.6 °F 68 °F 30 in East 6.8 mph 11.8 mph 67% 0 in 417.00 W/m2 unknown
11:59 80.6 °F 68 °F 30 in ESE 7.5 mph 11.8 mph 68% 0 in 425.00 W/m2 unknown
12:04 80.6 °F 68 °F 30 in East 6.8 mph 11.8 mph 67% 0 in 420.00 W/m2 unknown
12:09 80.6 °F 68 °F 30 in East 6.8 mph 8.1 mph 67% 0 in 341.00 W/m2 unknown
12:14 80.6 °F 68 °F 30 in East 6.8 mph 9.3 mph 68% 0 in 346.00 W/m2 unknown
12:19 80.6 °F 68 °F 30 in East 6.8 mph 9.3 mph 68% 0 in 369.00 W/m2 unknown
12:24 80.6 °F 69.8 °F 30.1 in ESE 6.2 mph 9.3 mph 69% 0 in 418.00 W/m2 unknown
12:29 80.6 °F 69.8 °F 30.1 in ESE 6.2 mph 8.1 mph 69% 0 in 482.00 W/m2 unknown
12:34 80.6 °F 68 °F 30.1 in SE 6.2 mph 9.3 mph 67% 0 in 615.00 W/m2 unknown
12:39 80.6 °F 68 °F 30.1 in ESE 6.8 mph 11.8 mph 65% 0 in 480.00 W/m2 unknown
12:44 80.6 °F 68 °F 30.1 in ESE 6.2 mph 11.8 mph 65% 0 in 350.00 W/m2 unknown
12:49 80.6 °F 68 °F 30.1 in ESE 6.2 mph 11.8 mph 66% 0 in 258.00 W/m2 unknown
12:54 80.6 °F 68 °F 30.1 in ESE 5.6 mph 8.1 mph 67% 0 in 246.00 W/m2 unknown
12:59 80.6 °F 68 °F 30.1 in ESE 5 mph 8.1 mph 68% 0 in 251.00 W/m2 unknown
13:04 78.8 °F 68 °F 30.1 in ESE 3.7 mph 5 mph 68% 0 in 250.00 W/m2 unknown
13:08 78.8 °F 68 °F 30.1 in ESE 4.3 mph 6.2 mph 69% 0 in 223.00 W/m2 unknown
13:14 78.8 °F 69.8 °F 30.1 in ESE 4.3 mph 6.2 mph 70% 0 in 183.00 W/m2 unknown
13:19 78.8 °F 68 °F 30.1 in East 3.1 mph 5 mph 70% 0 in 202.00 W/m2 unknown
13:24 78.8 °F 69.8 °F 30.1 in East 3.1 mph 5 mph 71% 0 in 214.00 W/m2 unknown
13:29 78.8 °F 69.8 °F 30.1 in ESE 3.1 mph 3.7 mph 70% 0 in 230.00 W/m2 unknown
13:34 78.8 °F 69.8 °F 30.1 in ESE 1.9 mph 3.7 mph 72% 0 in 236.00 W/m2 unknown
13:39 78.8 °F 69.8 °F 30.1 in East 2.5 mph 5 mph 71% 0 in 236.00 W/m2 unknown
13:44 80.6 °F 69.8 °F 30 in ESE 3.1 mph 5 mph 71% 0 in 297.00 W/m2 unknown
13:49 80.6 °F 69.8 °F 30 in ESE 3.1 mph 5 mph 71% 0 in 313.00 W/m2 unknown
13:54 80.6 °F 69.8 °F 30 in ESE 3.1 mph 5 mph 71% 0 in 299.00 W/m2 unknown
13:59 80.6 °F 69.8 °F 30 in ESE 3.1 mph 5 mph 70% 0 in 250.00 W/m2 unknown
14:04 80.6 °F 69.8 °F 30.1 in ESE 3.1 mph 5 mph 70% 0 in 230.00 W/m2 unknown
14:09 80.6 °F 68 °F 30 in ESE 3.1 mph 5 mph 69% 0 in 221.00 W/m2 unknown
14:14 80.6 °F 69.8 °F 30 in ESE 2.5 mph 5 mph 70% 0 in 193.00 W/m2 unknown
14:19 80.6 °F 69.8 °F 30.1 in SE 3.1 mph 5 mph 70% 0 in 162.00 W/m2 unknown
14:24 78.8 °F 69.8 °F 30 in SSE 3.1 mph 5 mph 70% 0 in 137.00 W/m2 unknown
14:29 78.8 °F 69.8 °F 30 in SE 1.9 mph 5 mph 71% 0 in 127.00 W/m2 unknown
14:34 78.8 °F 69.8 °F 30 in SE 1.2 mph 3.7 mph 72% 0 in 118.00 W/m2 unknown
14:39 78.8 °F 69.8 °F 30.1 in SE 1.9 mph 3.7 mph 73% 0 in 111.00 W/m2 unknown
14:44 78.8 °F 69.8 °F 30 in SE 1.9 mph 3.7 mph 75% 0 in 97.00 W/m2 unknown
14:49 78.8 °F 69.8 °F 30 in ESE 1.9 mph 3.7 mph 78% 0 in 74.00 W/m2 unknown
14:54 78.8 °F 69.8 °F 30 in SE 1.2 mph 3.1 mph 77% 0 in 95.00 W/m2 unknown
14:59 77 °F 69.8 °F 30 in East 3.1 mph 5 mph 79% 0 in 107.00 W/m2 unknown
15:04 77 °F 71.6 °F 30 in NE 3.1 mph 5 mph 82% 0 in 118.00 W/m2 unknown
15:09 77 °F 71.6 °F 30 in NE 1.9 mph 5 mph 83% 0 in 135.00 W/m2 unknown
15:14 77 °F 71.6 °F 30 in NE 1.2 mph 2.5 mph 82% 0 in 135.00 W/m2 unknown
15:19 77 °F 71.6 °F 30 in NE 1.2 mph 2.5 mph 82% 0 in 142.00 W/m2 unknown
15:24 77 °F 71.6 °F 30 in NE 1.2 mph 2.5 mph 82% 0 in 142.00 W/m2 unknown
15:29 77 °F 71.6 °F 30 in West 1.9 mph 3.7 mph 82% 0 in 116.00 W/m2 unknown
15:34 77 °F 71.6 °F 30.1 in West 2.5 mph 3.7 mph 84% 0 in 107.00 W/m2 unknown
15:39 77 °F 71.6 °F 30.1 in WSW 3.1 mph 5 mph 84% 0 in 91.00 W/m2 unknown
15:44 77 °F 71.6 °F 30.1 in WSW 3.1 mph 5 mph 85% 0 in 128.00 W/m2 unknown
15:49 77 °F 71.6 °F 30.1 in WSW 3.1 mph 5 mph 86% 0 in 134.00 W/m2 unknown
15:54 77 °F 71.6 °F 30.1 in WSW 4.3 mph 6.8 mph 86% 0.01 in 139.00 W/m2 unknown
15:59 77 °F 71.6 °F 30.1 in WSW 4.3 mph 6.8 mph 87% 0.01 in 139.00 W/m2 unknown
16:04 75.2 °F 71.6 °F 30.1 in WSW 5 mph 6.8 mph 87% 0.02 in 132.00 W/m2 unknown
16:09 75.2 °F 71.6 °F 30.1 in WSW 3.1 mph 6.8 mph 88% 0.02 in 128.00 W/m2 unknown
16:14 75.2 °F 71.6 °F 30.1 in WSW 4.3 mph 6.8 mph 88% 0.02 in 127.00 W/m2 unknown
16:19 75.2 °F 71.6 °F 30.1 in SW 4.3 mph 6.8 mph 88% 0.02 in 118.00 W/m2 unknown
16:24 75.2 °F 71.6 °F 30.1 in SW 3.7 mph 6.2 mph 88% 0.02 in 114.00 W/m2 unknown
16:29 75.2 °F 71.6 °F 30.1 in SSW 3.1 mph 5 mph 88% 0.02 in 125.00 W/m2 unknown
16:34 75.2 °F 71.6 °F 30.1 in SW 2.5 mph 5 mph 88% 0.02 in 125.00 W/m2 unknown
16:39 75.2 °F 71.6 °F 30.1 in SW 1.9 mph 3.7 mph 88% 0.02 in 123.00 W/m2 unknown
16:44 75.2 °F 71.6 °F 30.1 in SW 2.5 mph 3.7 mph 88% 0.03 in 123.00 W/m2 unknown
16:49 75.2 °F 71.6 °F 30.1 in SW 1.9 mph 3.7 mph 89% 0.03 in 104.00 W/m2 unknown
16:54 75.2 °F 71.6 °F 30.1 in SW 1.9 mph 3.7 mph 89% 0.03 in 79.00 W/m2 unknown
16:59 75.2 °F 71.6 °F 30.1 in SW 2.5 mph 3.7 mph 89% 0.03 in 79.00 W/m2 unknown
17:04 75.2 °F 71.6 °F 30.1 in WNW 1.9 mph 3.7 mph 89% 0.03 in 76.00 W/m2 unknown
17:09 75.2 °F 71.6 °F 30.1 in WNW 1.2 mph 2.5 mph 89% 0.03 in 95.00 W/m2 unknown
17:14 75.2 °F 71.6 °F 30 in NNW 1.2 mph 2.5 mph 89% 0.02 in 98.00 W/m2 unknown
17:19 75.2 °F 71.6 °F 30 in North 1.2 mph 2.5 mph 89% 0.02 in 88.00 W/m2 unknown
17:24 75.2 °F 71.6 °F 30 in North 1.2 mph 3.7 mph 89% 0.02 in 70.00 W/m2 unknown
17:29 73.4 °F 69.8 °F 30 in NNW 2.5 mph 3.7 mph 88% 0.02 in 70.00 W/m2 unknown
17:34 75.2 °F 71.6 °F 30 in North 1.9 mph 3.7 mph 89% 0.02 in 72.00 W/m2 unknown
17:39 75.2 °F 69.8 °F 30 in NNE 2.5 mph 3.7 mph 88% 0.02 in 102.00 W/m2 unknown
17:44 75.2 °F 71.6 °F 30 in NNE 2.5 mph 3.7 mph 89% 0.01 in 111.00 W/m2 unknown
17:49 75.2 °F 69.8 °F 30 in NNE 3.1 mph 3.7 mph 88% 0.01 in 104.00 W/m2 unknown
17:54 75.2 °F 71.6 °F 30 in NE 2.5 mph 3.7 mph 89% 0.01 in 83.00 W/m2 unknown
17:59 75.2 °F 71.6 °F 30 in NE 2.5 mph 3.7 mph 89% 0.01 in 83.00 W/m2 unknown
18:04 75.2 °F 71.6 °F 30 in NE 3.1 mph 3.7 mph 90% 0 in 70.00 W/m2 unknown
18:09 75.2 °F 71.6 °F 30 in NNE 2.5 mph 3.7 mph 90% 0 in 90.00 W/m2 unknown
18:14 75.2 °F 71.6 °F 30 in NNE 1.9 mph 3.7 mph 90% 0 in 97.00 W/m2 unknown
18:19 75.2 °F 71.6 °F 30 in NE 1.2 mph 3.1 mph 90% 0 in 79.00 W/m2 unknown
18:24 75.2 °F 71.6 °F 30 in NNE 2.5 mph 3.7 mph 90% 0 in 69.00 W/m2 unknown
18:29 75.2 °F 71.6 °F 30 in NE 2.5 mph 3.7 mph 89% 0 in 69.00 W/m2 unknown
18:34 75.2 °F 71.6 °F 30 in North 1.9 mph 3.7 mph 90% 0 in 63.00 W/m2 unknown
18:39 75.2 °F 71.6 °F 30 in North 2.5 mph 3.7 mph 90% 0 in 91.00 W/m2 unknown
18:44 75.2 °F 71.6 °F 30 in NNE 2.5 mph 3.7 mph 89% 0 in 114.00 W/m2 unknown
18:49 75.2 °F 71.6 °F 30 in North 2.5 mph 3.7 mph 89% 0 in 102.00 W/m2 unknown
18:54 75.2 °F 71.6 °F 30 in North 3.7 mph 6.2 mph 89% 0 in 62.00 W/m2 unknown
18:59 75.2 °F 71.6 °F 30 in NNE 4.3 mph 6.2 mph 89% 0 in 67.00 W/m2 unknown
19:04 73.4 °F 69.8 °F 30 in NNE 3.1 mph 6.2 mph 88% 0 in 67.00 W/m2 unknown
19:09 73.4 °F 69.8 °F 30 in NNE 2.5 mph 3.7 mph 88% 0 in 81.00 W/m2 unknown
19:14 73.4 °F 69.8 °F 30 in NNE 3.1 mph 5 mph 88% 0 in 81.00 W/m2 unknown
19:19 73.4 °F 69.8 °F 30 in NNE 3.1 mph 5 mph 88% 0 in 56.00 W/m2 unknown
19:24 73.4 °F 69.8 °F 30 in NNE 3.1 mph 5 mph 88% 0 in 44.00 W/m2 unknown
19:29 73.4 °F 69.8 °F 30 in NNE 3.1 mph 3.7 mph 89% 0 in 47.00 W/m2 unknown
19:34 73.4 °F 69.8 °F 30 in NNE 2.5 mph 3.7 mph 89% 0 in 51.00 W/m2 unknown
19:39 73.4 °F 69.8 °F 30 in NNE 3.1 mph 3.7 mph 89% 0 in 53.00 W/m2 unknown
19:44 73.4 °F 69.8 °F 30 in NNE 3.1 mph 5 mph 88% 0 in 65.00 W/m2 unknown
19:49 73.4 °F 69.8 °F 30 in NNE 3.1 mph 5 mph 88% 0 in 65.00 W/m2 unknown
19:54 73.4 °F 69.8 °F 30 in NNE 2.5 mph 3.7 mph 88% 0 in 40.00 W/m2 unknown
19:59 73.4 °F 69.8 °F 30 in NNE 2.5 mph 3.7 mph 88% 0 in 30.00 W/m2 unknown
20:04 73.4 °F 69.8 °F 30 in NE 2.5 mph 3.7 mph 88% 0 in 19.00 W/m2 unknown
20:09 73.4 °F 69.8 °F 30 in NNE 1.9 mph 3.7 mph 88% 0 in 14.00 W/m2 unknown
20:14 73.4 °F 69.8 °F 30 in NE 1.9 mph 3.7 mph 88% 0 in 16.00 W/m2 unknown
20:19 73.4 °F 69.8 °F 30 in NNE 1.9 mph 3.7 mph 88% 0 in 19.00 W/m2 unknown
20:24 73.4 °F 69.8 °F 30 in NNE 2.5 mph 5 mph 88% 0 in 18.00 W/m2 unknown
20:29 73.4 °F 69.8 °F 30 in NNE 2.5 mph 5 mph 88% 0 in 16.00 W/m2 unknown
20:34 73.4 °F 69.8 °F 30 in NNE 2.5 mph 5 mph 88% 0 in 18.00 W/m2 unknown
20:39 73.4 °F 69.8 °F 30 in NNE 2.5 mph 3.7 mph 88% 0 in 18.00 W/m2 unknown
20:44 73.4 °F 69.8 °F 30 in NNE 2.5 mph 3.7 mph 88% 0 in 16.00 W/m2 unknown
20:49 73.4 °F 69.8 °F 30 in NNE 2.5 mph 3.7 mph 89% 0 in 16.00 W/m2 unknown
20:54 73.4 °F 69.8 °F 30 in NNE 2.5 mph 3.7 mph 89% 0 in 12.00 W/m2 unknown
20:59 73.4 °F 69.8 °F 30 in NNE 2.5 mph 3.7 mph 89% 0 in 9.00 W/m2 unknown
21:04 73.4 °F 69.8 °F 30 in NNE 1.9 mph 3.7 mph 89% 0 in 5.00 W/m2 unknown
21:09 73.4 °F 69.8 °F 30 in NNE 1.2 mph 2.5 mph 90% 0 in 0.00 W/m2 unknown
21:14 73.4 °F 69.8 °F 30 in NNE 1.2 mph 2.5 mph 90% 0 in 0.00 W/m2 unknown
21:19 73.4 °F 69.8 °F 30 in Calm   1.9 mph 90% 0 in 0.00 W/m2 unknown
21:24 73.4 °F 69.8 °F 30 in Calm     91% 0 in 0.00 W/m2 unknown
21:29 73.4 °F 69.8 °F 30 in Calm     91% 0 in 0.00 W/m2 unknown
21:34 73.4 °F 69.8 °F 30 in NE 1.2 mph 2.5 mph 91% 0 in 0.00 W/m2 unknown
21:39 73.4 °F 69.8 °F 30 in NE 1.9 mph 3.1 mph 91% 0 in 0.00 W/m2 unknown
21:44 73.4 °F 69.8 °F 30 in NNE 1.9 mph 3.7 mph 91% 0 in 0.00 W/m2 unknown
21:49 73.4 °F 69.8 °F 30 in NNE 1.2 mph 3.7 mph 91% 0 in 0.00 W/m2 unknown
21:59 73.4 °F 69.8 °F 30 in NNE 1.9 mph 3.7 mph 91% 0 in 0.00 W/m2 unknown
22:04 73.4 °F 69.8 °F 30 in NNE 1.2 mph 3.1 mph 91% 0 in 0.00 W/m2 unknown
22:09 73.4 °F 69.8 °F 30 in NNE 0.6 mph 1.9 mph 91% 0 in 0.00 W/m2 unknown
22:14 73.4 °F 69.8 °F 30 in NNE 0.6 mph 1.2 mph 91% 0 in 0.00 W/m2 unknown
22:19 71.6 °F 69.8 °F 30 in Calm   2.5 mph 92% 0 in 0.00 W/m2 unknown
22:24 71.6 °F 69.8 °F 30 in North 1.2 mph 2.5 mph 92% 0 in 0.00 W/m2 unknown
22:29 71.6 °F 69.8 °F 30 in North 1.2 mph 2.5 mph 92% 0 in 0.00 W/m2 unknown
22:34 71.6 °F 69.8 °F 30 in North 1.2 mph 2.5 mph 92% 0 in 0.00 W/m2 unknown
22:39 71.6 °F 69.8 °F 30 in Calm   1.2 mph 92% 0 in 0.00 W/m2 unknown
22:44 71.6 °F 69.8 °F 30 in Calm   1.2 mph 92% 0 in 0.00 W/m2 unknown
22:49 71.6 °F 69.8 °F 30 in Calm     92% 0 in 0.00 W/m2 unknown
22:54 71.6 °F 69.8 °F 30 in Calm   1.2 mph 92% 0 in 0.00 W/m2 unknown
22:59 71.6 °F 69.8 °F 30 in North 0.6 mph 1.2 mph 93% 0 in 0.00 W/m2 unknown
23:04 71.6 °F 69.8 °F 30 in North 0.6 mph 1.2 mph 93% 0 in 0.00 W/m2 unknown
23:09 71.6 °F 69.8 °F 30 in North 0.6 mph 1.2 mph 93% 0 in 0.00 W/m2 unknown
23:14 71.6 °F 69.8 °F 30 in North 0.6 mph 1.2 mph 93% 0 in 0.00 W/m2 unknown
23:19 71.6 °F 68 °F 30 in NNW 0.6 mph 1.2 mph 93% 0 in 0.00 W/m2 unknown
23:24 69.8 °F 68 °F 30 in NW 0.6 mph 1.2 mph 93% 0 in 0.00 W/m2 unknown
23:29 69.8 °F 68 °F 30 in WNW 1.2 mph 2.5 mph 93% 0 in 0.00 W/m2 unknown
23:34 69.8 °F 68 °F 30 in WNW 1.2 mph 2.5 mph 94% 0 in 0.00 W/m2 unknown
23:39 69.8 °F 68 °F 30 in WNW 1.2 mph 2.5 mph 94% 0 in 0.00 W/m2 unknown
23:44 69.8 °F 68 °F 30 in WNW 1.2 mph 2.5 mph 94% 0 in 0.00 W/m2 unknown
23:49 69.8 °F 68 °F 30 in WSW 1.2 mph 2.5 mph 94% 0 in 0.00 W/m2 unknown
23:54 69.8 °F 68 °F 30 in SW 1.9 mph 2.5 mph 94% 0 in 0.00 W/m2 unknown
23:59 69.8 °F 68 °F 30 in SW 1.9 mph 2.5 mph 94% 0 in 0.00 W/m2 unknown
Stazione Meteorologica MeteoMincio Rivalta s/M (MN)
Con i complimenti di Weather Underground - 4 mb



METEO PILLOLE
Lo strato di neve al suolo più spesso
Tamarack, California
11,455 metri nel marzo 1911.
Share

Non seguire questo link o sarai bannato dal sito!